Location: Azul
(36.7830°S, 59.8500°W)
Time: 20:21:49
(UTC-03:00)

RS-44 - Pass Details

Date: 24 September 2024
Orbit: 1174 x 1511 km, 82.5° (Epoch: 11 October)

Event Time Altitude Azimuth Distance (km) Brightness Sun altitude
Rises 04:24:04 0° 202° (SSW) 4,505 ? -28.2°
Reaches altitude 10° 04:27:37 10° 216° (SW) 3,571 ? -27.6°
Enters shadow 04:30:16 17° 232° (SW) 3,054 ? -27.1°
